Regional Weather Roundup
Issued by NWS Upton, NY

Home | Current Version | Previous Version | Text Only | Print | Product List | Glossary On
Versions: 1 2 3 4 5 6 7 8 9 10 11 12 13 14 15 16 17 18 19 20 21 22 23 24 25 26 27
000
ASUS41 KOKX 210108
RWROKX

Regional Weather Roundup
National Weather Service New York NY
800 PM EST SAT JAN 20 2018

Note: "FAIR" indicates few or no clouds below 12,000 feet with no
significant weather and/or obstructions to visibility.

NYZ071-072-176-178-NJZ106-104-210200-
New York City Metro Area

CITY           SKY/WX    TMP DP  RH WIND       PRES   REMARKS
Central Park   FAIR      46  27  47 W8        30.02R
Bronx Bot Gard   N/A     46  27  46 W15       29.99R
Bronx Lehman C   N/A     46  28  49 W14         N/A
LaGuardia Arpt MOCLDY    48  27  44 W13       30.00R
Queens College   N/A     46  28  49 W9          N/A
Kennedy Intl   FAIR      46  29  51 W10       30.02R
Breezy Point     N/A     43 N/A N/A W12         N/A
Brooklyn Coll    N/A     46  30  53 W10         N/A
Staten Island    N/A     45  30  57 W5          N/A
Newark/Liberty MOCLDY    45  28  51 W7        30.01R
Teterboro      FAIR      41  27  57 SW6       30.00R
$$

NYZ177-179-078>081-210200-
Long Island New York

CITY           SKY/WX    TMP DP  RH WIND       PRES   REMARKS
Jones Beach      N/A     45 N/A N/A W12         N/A
Wantagh          N/A     45  30  57 W9          N/A
Matinecock Pt    N/A     41 N/A N/A SW16        N/A
Farmingdale    FAIR      45  27  49 W9        29.99R
MacArthur/ISP  FAIR      43  27  53 W5        29.98R
Shirley        FAIR      42  28  57 W6        29.99R
Mt Sinai Harb    N/A    N/A N/A N/A W9G15       N/A
Westhampton    FAIR      30  21  69 CALM      30.00R
East Hampton   FAIR      43  26  51 W7        29.96R
Southold         N/A     41  30  65 W6          N/A
Montauk          N/A     44  29  55 W8        29.97R
$$

NYZ052-065-067-210200-
Hudson Valley

CITY           SKY/WX    TMP DP  RH WIND       PRES   REMARKS
White Plains   FAIR      43  26  51 W9        29.96R
Larchmont Harb   N/A     45 N/A N/A SW10        N/A
Croton On Huds   N/A     39 N/A N/A SE1         N/A
Somers           N/A     39  28  65 W7          N/A  WCI  34
Brewster         N/A     39  28  65 W2          N/A
Newburgh       MOCLDY    41  28  60 W6        29.99R
Montgomery     FAIR      39  26  59 S6        29.98R WCI  35
Otisville        N/A     36  28  75 SW2         N/A
Warwick          N/A     41  28  60 W3          N/A
Suffern          N/A     43  28  56 SW5         N/A
Poughkeepsie   FAIR      39  26  59 SW5       29.98R
Albany         FAIR      38  26  62 CALM      29.97R
$$

NJZ001-105-106-008-010-013-015-019>022-104-210200-
New Jersey

CITY           SKY/WX    TMP DP  RH WIND       PRES   REMARKS
Newark/Liberty MOCLDY    45  28  51 W7        30.01R
Teterboro      FAIR      41  27  57 SW6       30.00R
Caldwell       FAIR      39  27  62 VRB3      30.01R
Somerville     FAIR      33  27  78 CALM      30.01R
Linden         NOT AVBL
Perth Amboy      N/A     45 N/A N/A W7          N/A
Sussex         FAIR      33  26  75 CALM      30.01R
Andover          N/A     29  26  89 CALM      30.02R
Trenton        FAIR      45  29  53 W3        30.02R
Millville      FAIR      31  27  85 CALM      30.05R
Atlantic City  FAIR      38  28  67 W3        30.04R
Wrightstown    FAIR      42  29  60 W3        30.01R
Toms River     FAIR      31  25  78 CALM      30.04R
Belmar         FAIR      46  28  49 W8        30.03R
$$

PAZ047>061-062-071-210200-
Eastern Pennsylvania

CITY           SKY/WX    TMP DP  RH WIND       PRES   REMARKS
Philadelphia   MOCLDY    43  28  55 NW6       30.05R
Allentown      FAIR      36  27  69 SW7       30.03R WCI  30
Scranton       FAIR      41  27  57 SW6       30.00R
$$

CTZ002-004>006-009-010-012-RIZ004-006-007-MAZ004-011-015-210200-
Southern New England

 In CT

CITY           SKY/WX    TMP DP  RH WIND       PRES   REMARKS
Bradley Intl   FAIR      39  27  62 S6        29.95R WCI  35
Hartford       FAIR      43  27  53 W5        29.96R
Danbury        FAIR      34  26  72 CALM      29.97R
Wtrbury/Oxford FAIR      39  26  59 W3        29.95R
Norwalk Harbor   N/A     43 N/A N/A SW8         N/A
Bridgeport     FAIR      42  27  55 SW6       29.97R
Meriden        FAIR      30  27  88 CALM      29.96R
New Haven      FAIR      38  26  62 CALM      29.97R
Chester        FAIR      41  27  56 W5        29.95R
Groton         FAIR      41  26  55 W7        29.95R
Willimantic    FAIR      43  26  51 CALM      29.94R

 In RI

CITY           SKY/WX    TMP DP  RH WIND       PRES   REMARKS
Providence     MOCLDY    43  27  53 W12       29.92R
Block Island   FAIR      40  32  73 W15       29.95R WCI  32
Westerly       FAIR      40  31  70 SW3       29.95R

In MA

CITY           SKY/WX    TMP DP  RH WIND       PRES   REMARKS
Boston         MOCLDY    43  27  53 SW10      29.90R
Worcester      FAIR      38  25  59 W12       29.88R WCI  30
Westfield      FAIR      31  26  82 VRB6      29.94R WCI  25
Provincetown   FAIR      40  30  67 MISG      29.90
Nantucket      FAIR      38  35  89 W13       29.92R WCI  30
$$

ANZ330-335-338-340-345-350-353-355-210200-
Coastal Marine Observations


STATION/POSITION TIME  SKY/WX   TEMP    WIND        PRES    VSBY  WAVE
                                AIR SEA DIR/SP/G                  HT/PER
                 (UTC)          (F)     (DEG/KT/KT) (MB)    (MI)  (FT/S)
NY Harb Entrance 2350            44 39  280/ 10/ 10 1015.0          3/ 6
20 S Fire Island 2350            44 42  290/ 14/ 16 1015.0          4/ 6
15 E Barnegat Li 0030               42                N/A           4/ 7
Hudson Canyon    2350            49 49  250/ 17/ 21 1014.9          7/ 7
Kings Point      0030            45 33  290/  6/  8 1016.4
Execution Rocks  NOT AVBL
Western LI Sound NOT AVBL
Central LI Sound 0045            37     250/  8/ 10   N/A           1
Robbins Reef     0030            47     280/ 11/ 13 1016.4
$$


>>>>>>>>>>>>>>>>>>>>>>>>>>>> KEY <<<<<<<<<<<<<<<<<<<<<<<<<<<
>                                                          <
>     SKY/WX - Sky Condition/Present Weather               <
>     TMP    - Temperature in Fahrenheit                   <
>     DP     - Dew Point in Fahrenheit                     <
>     RH     - Relative Humidity in Percent                <
>     WIND   - Direction (from) and Speed in MPH           <
>     PRES   - Mean Sea Level Pressure (inches of Hg)      <
>     WCI    - Wind Chill Index                            <
>     VSB    - Visibility in Miles                         <
>     HX     - Heat Index                                  <
>     TC     - Temperature in Celsius                      <
>     VRB    - Varibale Wind Direction                     <
>                                                          <
>>>>>>>>>>>>>>>>>>>>>>>>>>>> KEY <<<<<<<<<<<<<<<<<<<<<<<<<<<




USA.gov is the U.S. government's official web portal to all federal, state and local government web resources and services.